Location: Unspecified
(0.0000°N, 0.0000°E)
Time: 19:03:45
(UTC+00:00)

Tiangong 1 - Pass Details

Date: 11 December 2017
Orbit: 276 x 303 km, 42.8° (Epoch: 11 December)

Event Time Altitude Azimuth Distance (km) Brightness Sun altitude
Rises 18:16:47 0° 329° (NNW) 1,956 4.8 -5.4°
Reaches altitude 10° 18:18:51 10° 341° (NNW) 1,134 3.4 -5.8°
Maximum altitude 18:21:07 29° 45° (NE) 563 1.4 -6.4°
Drops below altitude 10° 18:23:23 10° 109° (ESE) 1,127 3.0 -6.9°
Sets 18:25:26 0° 121° (ESE) 1,940 4.3 -7.3°
Enters shadow 18:25:26 - 121° (ESE) 1,943 4.3 -7.3°
